Regional Weather Roundup
Issued by NWS

Home | Current Version | Previous Version | Text Only | Print | Product List | Glossary On
Versions: 1 2 3 4 5 6 7 8 9 10 11 12 13 14 15 16 17 18 19 20 21 22 23 24 25 26 27 28 29 30 31 32 33 34 35 36 37 38 39 40 41 42 43 44 45 46 47 48 49 50
000
ASUS43 KMKX 311700
RWRWI

WISCONSIN REGIONAL WEATHER ROUNDUP
NATIONAL WEATHER SERVICE MILWAUKEE/SULLIVAN WI
1200 PM CDT TUE MAY 31 2016

NOTE: "FAIR" INDICATES FEW OR NO CLOUDS BELOW 12,000 FEET WITH NO
SIGNIFICANT WEATHER AND/OR OBSTRUCTIONS TO VISIBILITY.

WIZ001-002-006>008-014>016-023>028-311800-
NORTHWEST WISCONSIN

CITY           SKY/WX    TMP DP  RH WIND       PRES   REMARKS
SUPERIOR ARPT  LGT RAIN  42  41  97 NE16G29   29.96F
ASHLAND        LGT RAIN  53  49  86 N6        29.96F
HAYWARD        LGT RAIN  64  60  87 SE8       29.91F
SIREN          CLOUDY    67  59  76 S12G20    29.88F
CUMBERLAND     CLOUDY    63  61  94 SE9       29.91F
RICE LAKE      RAIN      66  61  82 SE6       29.92F
CHETEK         CLOUDY    69  62  78 SE6       29.91F
LADYSMITH      MOSUNNY   72  59  62 SE13      29.95F
EAU CLAIRE     CLOUDY    75  60  59 SE13      29.89F
MENOMONIE      CLOUDY    70  68  95 SE9       29.89F
NEW RICHMOND   CLOUDY    67  59  75 S10       29.89F
OSCEOLA        CLOUDY    68  60  77 S14       29.91S
$$

WIZ003>005-009-010-017-018-311800-
NORTH CENTRAL WISCONSIN

CITY           SKY/WX    TMP DP  RH WIND       PRES   REMARKS
MANITOWISH WTR NOT AVBL
ARBOR VITAE    PTSUNNY   64  51  63 SE10G18   30.01F
WOODRUFF       PTSUNNY   64  51  63 SE10G18   30.01F
RHINELANDER    CLOUDY    65  51  60 E14       30.02F
EAGLE RIVER      N/A     61  46  56 SE12G21   30.03F
LAND O LAKES   CLOUDY    59  46  61 E13       30.04F
PHILLIPS       CLOUDY    62  58  86 E5        29.97F
TOMAHAWK       SUNNY     64  52  64 E7        30.01F
MEDFORD        MOSUNNY   67  57  70 SE12G18   29.98S
MERRILL        SUNNY     68  56  65 SE10G16   30.00F
$$

WIZ029-030-035-036-043>047-311800-
CENTRAL WISCONSIN

CITY           SKY/WX    TMP DP  RH WIND       PRES   REMARKS
WAUSAU         SUNNY     71  54  54 E14       29.98F
MOSINEE        SUNNY     70  57  64 E13       30.00F
MARSHFIELD     SUNNY     75  60  59 SE14      29.95F
STEVENS POINT  SUNNY     68  55  63 E13G21    30.00F
WAUPACA        MOSUNNY   72  56  57 E10       30.01F
WAUTOMA        SUNNY    N/A N/A N/A E10       29.98F
WISC RAPIDS    SUNNY     77  56  48 S12G22    29.97F
CAMP DOUGLAS   NOT AVBL
$$

WIZ011>013-019>022-031-037>040-048>050-311800-
NORTHEAST WISCONSIN

CITY           SKY/WX    TMP DP  RH WIND       PRES   REMARKS
ANTIGO         SUNNY     64  53  68 E12       30.04F
SHAWANO        MOSUNNY   66  53  61 E10       30.05F
OCONTO         SUNNY     60  48  66 E9        30.07S
STURGEON BAY   NOT AVBL
GREEN BAY      SUNNY     66  54  65 NE16      30.05S
MANITOWOC      NOT AVBL
APPLETON       MOSUNNY   70  52  52 E9G16     30.01F
CLINTONVILLE   SUNNY     68  52  56 E12G17    30.03F
OSHKOSH        MOSUNNY   70  58  65 E12       30.00F
$$

WIZ032>034-041-042-053>061-311800-
SOUTHWEST WISCONSIN

CITY           SKY/WX    TMP DP  RH WIND       PRES   REMARKS
LA CROSSE      MOSUNNY   78  62  57 S10       29.91S HX  80
SPARTA         SUNNY     77  62  59 S5        29.94F
VIROQUA        SUNNY     75  62  63 S12       29.95S
BOSCOBEL       NOT AVBL
PRAIRIE DU CHI MOSUNNY   77  62  58 S5        29.92F
PLATTEVILLE    CLOUDY    66  64  92 SE10      29.98S
$$

WIZ056-057-062-063-064-067-068-311800-
SOUTH CENTRAL WISCONSIN

CITY           SKY/WX    TMP DP  RH WIND       PRES   REMARKS
REEDSBURG      PTSUNNY   77  58  51 SE3       29.95S
BARABOO/DELLS  PTSUNNY   78  51  39 SE9       29.96S
LONE ROCK      TSTM      66  63  88 S10       29.98R FOG
MINERAL POINT  RAIN      64  63  94 SE10      30.00S
MADISON        LGT RAIN  76  50  40 S10       29.99R
MIDDLETON      CLOUDY    71  59  64 SE10      29.98R
WATERTOWN      CLOUDY    74  54  48 E12G20    29.98S
MONROE         RAIN      64  61  88 S14       30.01R
JANESVILLE     CLOUDY    72  57  60 SW14G22   30.00R
$$

WIZ051-052-058>065-066-070>072-311800-
SOUTHEAST WISCONSIN

CITY           SKY/WX    TMP DP  RH WIND       PRES   REMARKS
MILWAUKEE      PTSUNNY   67  55  65 E8        30.02F
WAUKESHA       MOSUNNY   72  52  49 E9        30.02F
MILWAUKEE/TIMM SUNNY     70  50  49 E9        30.03S
RACINE         SUNNY     72  52  49 E7        30.04S
BURLINGTON     MOSUNNY   76  48  36 E10G20    30.00S
KENOSHA        MOSUNNY   72  55  55 E10       30.02R
FOND DU LAC    MOSUNNY   74  55  51 SE12      30.00F
SHEBOYGAN      SUNNY     64  54  69 NE7       30.04F
WEST BEND      MOSUNNY   72  54  53 SE9       30.02F
JUNEAU         CLOUDY    73  56  54 E10       30.00F
$$

LSZ147-162-311800-
LAKE SUPERIOR

STATION/POSITION TIME  TEMP    WIND        PRES    WAVE
                       AIR SEA DIR/SP/G            HT/PER
                 (UTC) (F)     (DEG/KT/KT) (MB)    (FT/S)
W MID LAKE BUOY  1550   40 38   60/ 16/ 17 1018.6R   3/ 5
DEVILS ISLAND    1600   42      70/ 24/ 26 1016.4F
SAXON HARBOR     1600   57      70/  8/  8 1014.6
$$

LMZ867-665-643>646-311800-
LAKE MICHIGAN

STATION/POSITION TIME  TEMP    WIND        PRES    WAVE
                       AIR SEA DIR/SP/G            HT/PER
                 (UTC) (F)     (DEG/KT/KT) (MB)    (FT/S)
CHAMBERS ISLAND  1600   54      20/ 11/ 13 1019.3R
N MID LAKE BUOY  1550   47 47   40/  6/  8 1019.3R   1/ 4
NORTHPORT PIER   1600   51      80/  9/ 12 1019.3S
SISTER BAY       1605   60     110/  6/ 10   N/A
ALGOMA LAKESHORE 1617           60/ 14/ 18   N/A
KEWAUNEE LAKESHO 1600   51      20/ 11/ 17 1017.4R
SHEBOYGAN LAKESH 1600   49     350/ 13/ 14 1018.1R
PORT WASHINGTON  1600   56      40/  5/  8 1017.9
S MID LAKE BUOY  1550   56 54   80/  8/  8 1016.1F   0
KENOSHA   LAKESH 1600   57      20/  8/  8 1016.3F
$$

TC  - TEMPERATURE IN CELSIUS
VSB - VISIBILITY IN STATUTE MILES
WCI - WIND CHILL INDEX
HX  - HEAT INDEX





USA.gov is the U.S. government's official web portal to all federal, state and local government web resources and services.